Orbital Elements at Epoch 2459200.5 (2020-Dec-17.0) TDB
Reference: JPL 25 (heliocentric ecliptic J2000)
Element | Value | Uncertainty (1-sigma) | Units |
e | .1721721578531923 | 3.2705e-08 | |
a | 3.116511221522928 | 1.6515e-08 | au |
q | 2.579934759539638 | 9.8491e-08 | au |
i | 1.051877886566388 | 3.8467e-06 | deg |
node | 159.6323161064232 | 0.00019083 | deg |
peri | 108.0008997697221 | 0.00019123 | deg |
M | 54.74089204602387 | 1.0825e-05 | deg |
tp | 2458894.929912270046 (2020-Feb-15.42991227) | 6.0556e-05 | TDB |
period | 2009.562275497729 5.50 | 1.5974e-05 4.373e-08 | d yr |
n | .179143490296082 | 1.424e-09 | deg/d |
Q | 3.653087683506219 | 1.9359e-08 | au |
|
| | Orbit Determination Parameters
Additional Information
|